This demonstration page uses our WeatherBlox Daily Observations layout. Learn more.

Hourly Observations for August 7, 2015

Temp ( °F °C ) Dew Point ( °F °C ) Humidity (%) Winds ( mph kmh ) Pressure ( in mb ) Visibility ( mi km ) Precip ( " mm )
12:15 am 00:15 Clear 64 18 63 17 94 94 Calm 29.85 1011 7 11.265408 0 0
12:35 am 00:35 Clear with Mist and Fog 66 19 63 17 88 88 Calm 29.83 1010 5 8.04672 0 0
12:55 am 00:55 Clear 64 18 63 17 94 94 Calm 29.85 1011 7 11.265408 0 0
1:15 am 01:15 Clear 64 18 63 17 94 94 Calm 29.85 1011 7 11.265408 0 0
1:35 am 01:35 Clear with Mist and Fog 64 18 63 17 94 94 Calm 29.85 1011 5 8.04672 0 0
1:55 am 01:55 Mostly Cloudy with Mist and Fog 63 17 61 16 94 94 Calm 29.85 1011 1 1.609344 0 0
2:15 am 02:15 Clear with Mist and Fog 64 18 63 17 94 94 Calm 29.88 1012 2 3.218688 0 0
2:35 am 02:35 Mostly Cloudy with Mist and Fog 63 17 63 17 100 100 Calm 29.88 1012 1.5 2.414016 0 0
2:55 am 02:55 Mostly Cloudy with Fog 61 16 61 16 100 100 N 3 6 29.88 1012 0.5 0.804672 0 0
3:15 am 03:15 Cloudy with Fog 63 17 61 16 94 94 Calm 29.88 1012 0.25 0.402336 0 0
3:35 am 03:35 Cloudy with Fog 63 17 61 16 94 94 Calm 29.88 1012 0.25 0.402336 0 0
3:55 am 03:55 Mostly Cloudy with Fog 63 17 61 16 94 94 Calm 29.88 1012 0.5 0.804672 0 0
4:15 am 04:15 Mostly Cloudy with Mist and Fog 63 17 63 17 100 100 Calm 29.88 1012 1 1.609344 0 0
4:35 am 04:35 Clear with Mist and Fog 63 17 63 17 100 100 Calm 29.88 1012 3 4.828032 0 0
4:55 am 04:55 Mostly Cloudy with Mist and Fog 63 17 61 16 94 94 Calm 29.88 1012 1.75 2.816352 0 0
5:15 am 05:15 Cloudy with Fog 61 16 59 15 94 94 Calm 29.88 1012 0.25 0.402336 0 0
5:35 am 05:35 Cloudy with Fog 61 16 61 16 100 100 Calm 29.88 1012 0.5 0.804672 0 0
5:55 am 05:55 Cloudy with Fog 61 16 61 16 100 100 WNW 3 6 29.88 1012 0.25 0.402336 0 0
6:15 am 06:15 Cloudy with Fog 61 16 59 15 94 94 WNW 3 6 29.88 1012 0.25 0.402336 0 0
6:35 am 06:35 Cloudy with Fog 61 16 59 15 94 94 Calm 29.88 1012 0.25 0.402336 0 0
6:55 am 06:55 Cloudy with Fog 61 16 59 15 94 94 WSW 3 6 29.88 1012 0 0 0 0
7:15 am 07:15 Cloudy with Fog 61 16 61 16 100 100 Calm 29.88 1012 0 0 0 0
7:35 am 07:35 Cloudy with Fog 63 17 63 17 100 100 Calm 29.88 1012 0 0 0 0
7:55 am 07:55 Cloudy with Fog 64 18 63 17 94 94 Calm 29.88 1012 0 0 0 0
8:55 am 08:55 Sunny with Mist and Fog 72 22 70 21 94 94 Calm 29.88 1012 4 6.437376 0 0
9:15 am 09:15 Sunny with Mist and Fog 72 22 70 21 94 94 Calm 29.88 1012 5 8.04672 0 0
9:35 am 09:35 Sunny 73 23 72 22 94 94 Calm 29.85 1011 7 11.265408 0 0
9:55 am 09:55 Partly Cloudy 73 23 72 22 94 94 Calm 29.85 1011 10 16.09344 0 0
10:15 am 10:15 Sunny 73 23 72 22 94 94 SSW 5 7 29.85 1011 10 16.09344 0 0
10:35 am 10:35 Partly Cloudy 73 23 72 22 94 94 Calm 29.85 1011 10 16.09344 0 0
10:55 am 10:55 Partly Cloudy 77 25 72 22 83 83 Calm 29.85 1011 10 16.09344 0 0
11:15 am 11:15 Sunny 79 26 70 21 74 74 Calm 29.83 1010 10 16.09344 0 0
11:35 am 11:35 Sunny 81 27 70 21 70 70 ESE 5 7 29.8 1009 10 16.09344 0 0
11:55 am 11:55 Sunny 82 28 70 21 66 66 ESE 6 9 29.8 1009 10 16.09344 0 0
12:15 pm 12:15 Sunny 82 28 70 21 66 66 S 8 13 29.8 1009 10 16.09344 0 0
12:35 pm 12:35 Sunny 84 29 68 20 58 58 S 7 11 29.8 1009 10 16.09344 0 0
12:55 pm 12:55 Sunny 84 29 68 20 58 58 SE 3 6 29.8 1009 10 16.09344 0 0
1:15 pm 13:15 Sunny 84 29 68 20 58 58 S 5 7 29.8 1009 10 16.09344 0 0
1:35 pm 13:35 Sunny 84 29 68 20 58 58 SE 6 9 29.8 1009 10 16.09344 0 0
1:55 pm 13:55 Sunny 86 30 64 18 49 49 SSE 9 15 29.77 1008 10 16.09344 0 0
2:15 pm 14:15 Sunny 88 31 64 18 46 46 SSE 8 13 29.77 1008 10 16.09344 0 0
2:35 pm 14:35 Sunny 88 31 66 19 49 49 SE 9 15 29.74 1007 10 16.09344 0 0
2:55 pm 14:55 Sunny 88 31 66 19 49 49 SE 10 17 29.74 1007 10 16.09344 0 0
3:15 pm 15:15 Sunny 88 31 64 18 46 46 SE 9 15 29.74 1007 10 16.09344 0 0
3:35 pm 15:35 Sunny 88 31 64 18 46 46 SE 9 15 29.74 1007 10 16.09344 0 0
3:55 pm 15:55 Sunny 88 31 64 18 46 46 ESE 10 17 29.74 1007 10 16.09344 0 0
4:15 pm 16:15 Sunny 90 32 64 18 43 43 SSE 9 15 29.74 1007 10 16.09344 0 0
4:35 pm 16:35 Sunny 90 32 64 18 43 43 SSE 10 17 29.74 1007 10 16.09344 0 0
4:55 pm 16:55 Mostly Cloudy 88 31 63 17 43 43 SE 10 17 29.74 1007 10 16.09344 0 0
5:15 pm 17:15 Mostly Cloudy 88 31 63 17 43 43 SE 9 15 29.71 1006 10 16.09344 0 0
5:35 pm 17:35 Partly Cloudy 86 30 64 18 49 49 ESE 8 13 29.71 1006 10 16.09344 0 0
5:55 pm 17:55 Sunny 88 31 66 19 49 49 ESE 9 15 29.71 1006 10 16.09344 0 0
6:15 pm 18:15 Sunny 88 31 66 19 49 49 SSE 12 19 29.68 1005 10 16.09344 0 0
6:35 pm 18:35 Sunny 86 30 66 19 52 52 SSE 10 17 29.71 1006 10 16.09344 0 0
6:55 pm 18:55 Sunny 84 29 66 19 55 55 SE 9 15 29.68 1005 10 16.09344 0 0
7:15 pm 19:15 Sunny 82 28 66 19 58 58 SE 9 15 29.71 1006 10 16.09344 0 0
7:35 pm 19:35 Sunny 81 27 68 20 66 66 ESE 7 11 29.71 1006 10 16.09344 0 0
7:55 pm 19:55 Sunny 81 27 68 20 66 66 ESE 8 13 29.71 1006 10 16.09344 0 0
8:15 pm 20:15 Sunny 79 26 68 20 70 70 ESE 7 11 29.71 1006 10 16.09344 0 0
8:35 pm 20:35 Sunny 77 25 66 19 69 69 ESE 9 15 29.74 1007 10 16.09344 0 0
8:55 pm 20:55 Partly Cloudy 77 25 66 19 69 69 ESE 10 17 29.68 1005 10 16.09344 0 0
9:15 pm 21:15 Partly Cloudy 77 25 66 19 69 69 ESE 10 17 29.68 1005 10 16.09344 0 0
9:35 pm 21:35 Partly Cloudy 77 25 64 18 65 65 ESE 10 17 29.68 1005 10 16.09344 0 0
9:55 pm 21:55 Mostly Cloudy 75 24 64 18 69 69 SE 13 20 29.71 1006 10 16.09344 0 0
10:15 pm 22:15 Mostly Cloudy with Thunderstorms 75 24 64 18 69 69 SE 14 22 29.68 1005 10 16.09344 0 0
10:35 pm 22:35 Mostly Cloudy 77 25 64 18 65 65 SE 18 30 29.65 1004 10 16.09344 0 0
10:55 pm 22:55 Mostly Cloudy 75 24 64 18 69 69 NE 8 13 29.71 1006 10 16.09344 0 0
11:15 pm 23:15 Cloudy with Thunderstorms 68 20 66 19 94 94 WNW 9 15 29.85 1011 3 4.828032 0.25 6.35
11:35 pm 23:35 Cloudy with Thunderstorms 68 20 66 19 94 94 W 8 13 29.88 1012 7 11.265408 0.3 7.62
11:55 pm 23:55 Cloudy with Thunderstorms 68 20 66 19 94 94 WNW 5 7 29.88 1012 10 16.09344 0.34 8.636

Powered by AerisWeather